星链-30393 (STARLINK-30393 )

导读

STARLINK-30393是美国SpaceX公司“星链”星座中的一员,于2023年9月16日发射升空,属于星链低轨互联网通信卫星。星链星座旨在为全球提供高速宽带互联网服务,该卫星搭载Ku/Ka波段通信载荷,采用氪工质霍尔推进器,具备自主避撞能力,设计寿命约5-7年,退役后会坠入大气层完全烧毁。

Basic Information
目录编号:
57866
目录名称:
STARLINK-30393
国际标识:
2023-144C
轨道中心:
EARTH
卫星名称:
星链-30393
卫星全名:
星链-30393 (STARLINK-30393 )
卫星状态:
在轨 (已飞行1006 天)
发射日期:
2023-09-16 UTC
国别 :
美国 (US)
星等 :
--
Orbit Information
数据来源 国际轨道数据 AOE轨道数据
星历时间 2026-06-18T09:54:16+0800
11小时前
查看轨道信息
2026-06-15T17:00:00+0800
3天前
查看轨道信息
半长轴 6861.185km 6861.114km
偏心率 0.0001567 0.0001707
轨道倾角 43.004° 43.003°
近地点辐角 269.530° 291.171°
升交点赤经 78.006° 93.284°
平近点角 90.537° 299.474°
近地点 481.972km 481.805km
远地点 484.124km 484.149km
周期 94.267分钟 94.265分钟
每日圈数 15.275805 15.276041
Detailed Information
固有亮度:
5
最大亮度:
0.3
卫星平台:
Starlink v2.0 mini
覆盖范围:
全球
运营商:
太空探索技术公司
运营商所在国:
美国
制造商(研发单位):
太空探索技术公司
制造商所在国:
美国
使用方式:
暂无
Satellite Introduction
星链(Starlink)计划是由太空探索技术公司(SpaceX)提出的一个巨型低轨卫星互联网星座项目,计划在2019年至2024年间在太空搭建由约1.2万颗卫星组成的“星链”网络,其中1584颗将部署在地球上空550千米处的近地轨道,并从2020年开始工作。该卫星仍在工作。
2D Orbit Map
3D Orbit Map
Orbit Altitude Analysis Chart
Orbit Inclination Analysis Chart
Orbit Comprehensive Analysis Chart
View Comprehensive Chart